Change the Weather History Date:

Tuesday, February 12, 2013

  Actual Average Record
Temperature  
Mean Temperature -4 °F -  
Max Temperature 6 °F 5 °F 42 °F (2006)
Min Temperature -15 °F -12 °F -54 °F (1950)
Degree Days  
Heating Degree Days 70    
Moisture  
Dew Point -11 °F    
Average Humidity 80    
Maximum Humidity 85    
Minimum Humidity 75    
Precipitation  
Precipitation 0.00 in - - ()
Sea Level Pressure  
Sea Level Pressure 29.80 in    
Wind  
Wind Speed 0 mph (North)    
Max Wind Speed 0 mph    
Max Gust Speed -    
Visibility 9 miles    
Events Fog    
Averages and records for this station are not official NWS values.
T = Trace of Precipitation, MM = Missing Value Source: NWS Daily Summary

Daily Weather History Graph

Daily Weather History Graph

Search for Another Location

Airport or City:

Trip Planner

Search our weather history database for the weather conditions in past years. The results will help you decide how hot, cold, wet, or windy it might be!

Date:

Astronomy

Feb. 12, 2013 Rise Set
Actual Time 8:54 AM AKST 5:11 PM AKST
Civil Twilight 8:01 AM AKST 6:04 PM AKST
Nautical Twilight 7:04 AM AKST 7:02 PM AKST
Astronomical Twilight 6:08 AM AKST 7:58 PM AKST
Moon 8:36 AM AKST (2/12) 9:56 PM AKST (2/12)
Length of Visible Light 10h 03m
Length of Day
8h 16m
Waxing Crescent, 8% of the Moon is Illuminated
Feb 12
Waxing Crescent
Feb 17
First Quarter
Feb 25
Full
Mar 4
Last Quarter
Mar 11
New

Hourly Weather History & Observations

Time (AKST) Temp. Dew Point Humidity Pressure Visibility Wind Dir Wind Speed Gust Speed Precip Events Conditions
12:55 AM -0.4 °F -4.9 °F 81% 29.77 in 10.0 mi Calm Calm - N/A   Clear
1:55 AM -0.4 °F -4.4 °F 83% 29.77 in 10.0 mi Calm Calm - N/A   Clear
2:55 AM -5.4 °F -10.1 °F 80% 29.76 in 8.0 mi Calm Calm - N/A   Clear
3:55 AM -4.2 °F -8.3 °F 82% 29.76 in 10.0 mi Calm Calm - N/A   Clear
4:55 AM -8.7 °F -13.4 °F 80% 29.76 in 10.0 mi Calm Calm - N/A   Clear
5:55 AM -8.7 °F -13.5 °F 79% 29.76 in 10.0 mi Calm Calm - N/A   Clear
6:55 AM -11.4 °F -16.2 °F 79% 29.77 in 10.0 mi Calm Calm - N/A   Clear
7:55 AM -14.3 °F -19.7 °F 77% 29.78 in 10.0 mi Calm Calm - N/A   Clear
8:55 AM -15.0 °F -20.7 °F 75% 29.79 in 10.0 mi Calm Calm - N/A   Scattered Clouds
9:44 AM -11.2 °F -14.8 °F 84% 29.81 in 10.0 mi Calm Calm - N/A   Scattered Clouds
9:50 AM -11.2 °F -16.6 °F 77% 29.76 in 7.0 mi Calm Calm - N/A Fog Shallow Fog
9:55 AM -10.5 °F -16.1 °F 76% 29.81 in 10.0 mi Calm Calm - N/A   Mostly Cloudy
10:24 AM -11.2 °F -16.6 °F 77% 29.76 in 6.0 mi Calm Calm - N/A   Scattered Clouds
10:50 AM -11.2 °F -16.6 °F 77% 29.82 in 4.0 mi Calm Calm - N/A   Scattered Clouds
11:55 AM -7.6 °F -13.0 °F 77% 29.83 in 10.0 mi Calm Calm - N/A   Scattered Clouds
12:55 PM -2.2 °F -7.6 °F 78% 29.82 in 10.0 mi Calm Calm - N/A   Mostly Cloudy
1:55 PM 1.4 °F -2.2 °F 85% 29.83 in 10.0 mi Calm Calm - N/A   Mostly Cloudy
2:55 PM 6.3 °F 2.3 °F 84% 29.83 in 10.0 mi Calm Calm - N/A   Partly Cloudy
3:55 PM 5.7 °F 1.9 °F 84% 29.83 in 10.0 mi Calm Calm - 0.00 in   Scattered Clouds
4:55 PM 5.9 °F 2.3 °F 85% 29.83 in 10.0 mi Calm Calm - N/A   Partly Cloudy
5:55 PM -0.6 °F -4.7 °F 83% 29.83 in 10.0 mi Calm Calm - N/A   Clear
6:55 PM -3.8 °F -8.3 °F 81% 29.84 in 10.0 mi Calm Calm - N/A   Clear
7:55 PM -5.1 °F -9.9 °F 80% 29.85 in 10.0 mi Calm Calm - N/A   Clear
8:55 PM -6.5 °F -11.0 °F 81% 29.84 in 10.0 mi Calm Calm - N/A   Clear
9:55 PM -11.4 °F -17.0 °F 76% 29.84 in 10.0 mi Calm Calm - N/A   Clear
10:55 PM -11.9 °F -17.3 °F 77% 29.84 in 10.0 mi Calm Calm - N/A   Clear
11:55 PM -13.2 °F -18.4 °F 77% 29.84 in 10.0 mi Calm Calm - N/A   Clear